Location: Unspecified
(50.7693°N, 0.0000°E)
Time: 09:26:02
(UTC+00:00)

Transit 2A - Pass Details

Date: 28 June 2019
Orbit: 594 x 965 km, 66.7° (Epoch: 16 July)

Event Time Altitude Azimuth Distance (km) Brightness Sun altitude
Rises 00:26:28 0° 240° (WSW) 3,645 - -15.8°
Exits shadow 00:27:10 - 241° (WSW) 3,396 9.0 -15.7°
Reaches altitude 10° 00:29:11 10° 246° (WSW) 2,698 8.5 -15.7°
Maximum altitude 00:35:16 45° 319° (NW) 1,262 7.4 -15.6°
Drops below altitude 10° 00:41:06 10° 31° (NNE) 2,587 9.8 -15.5°
Sets 00:43:39 0° 38° (NE) 3,482 10.5 -15.4°
